This is the latest recevied weather packets stored in our database for station/object CA3DPI. If no packets are shown the sender has not sent any weather packets the latest 10 day(s).
| Time | Temp. | Humidity | Pressure | Rain* | Wind** | Luminosity | Snow |
|---|---|---|---|---|---|---|---|
| 1777641414 | 14.44° C | 54% | 1024 hPa | - | - | - | - |
| 1777640814 | 14.44° C | 53% | 1023.8 hPa | - | - | - | - |
| 1777640214 | 14.44° C | 55% | 1023.8 hPa | - | - | - | - |
| 1777639614 | 14.44° C | 56% | 1023.6 hPa | - | - | - | - |
| 1777639013 | 13.89° C | 57% | 1023.5 hPa | - | - | - | - |
| 1777638413 | 13.89° C | 59% | 1023.3 hPa | - | - | - | - |
| 1777637813 | 13.89° C | 57% | 1023.1 hPa | - | - | - | - |
| 1777637213 | 13.89° C | 61% | 1023.1 hPa | - | - | - | - |
| 1777636613 | 13.89° C | 60% | 1023 hPa | - | - | - | - |
| 1777636013 | 14.44° C | 56% | 1022.7 hPa | - | - | - | - |
| 1777635413 | 14.44° C | 58% | 1022.6 hPa | - | - | - | - |
| 1777634812 | 14.44° C | 55% | 1022.5 hPa | - | - | - | - |
| 1777634448 | 13.89° C | 54% | 1022.3 hPa | - | - | - | - |
| 1777634212 | 13.89° C | 54% | 1022.3 hPa | - | - | - | - |
| 1777633612 | 13.89° C | 59% | 1022.3 hPa | - | - | - | - |
| 1777633012 | 13.89° C | 56% | 1022.1 hPa | - | - | - | - |
| 1777632412 | 13.33° C | 53% | 1022.2 hPa | - | - | - | - |
| 1777631811 | 13.89° C | 55% | 1022.3 hPa | - | - | - | - |
| 1777631211 | 13.89° C | 53% | 1022 hPa | - | - | - | - |
| 1777630611 | 13.33° C | 54% | 1022 hPa | - | - | - | - |
| 1777630011 | 13.33° C | 55% | 1021.8 hPa | - | - | - | - |
| 1777629411 | 12.78° C | 55% | 1021.8 hPa | - | - | - | - |
| 1777628811 | 13.33° C | 55% | 1021.8 hPa | - | - | - | - |
| 1777628210 | 13.33° C | 55% | 1021.7 hPa | - | - | - | - |
| 1777627610 | 12.78° C | 54% | 1021.8 hPa | - | - | - | - |
* Rain since midnight (hover to see other rain measurements)
** Current wind speed in m/s (hover to see current wind gust speed)